Regional Weather Roundup
Issued by NWS Sterling, VA

Home | Current Version | Previous Version | Text Only | Print | Product List | Glossary On
Versions: 1 2 3 4 5 6 7 8 9 10 11 12 13 14 15 16 17 18 19 20 21 22 23 24 25 26 27 28 29 30 31 32 33 34 35 36 37 38 39 40 41 42 43 44 45 46 47 48 49 50
000
ASUS41 KLWX 032010
RWRLWX

REGIONAL WEATHER ROUNDUP
NATIONAL WEATHER SERVICE BALTIMORE MD/WASHINGTON DC
400 PM EDT MON AUG 03 2015

Note: "FAIR" indicates few or no clouds below 12,000 feet
with no significant weather and/or obstructions to visibility.
 TC=TEMPERATURE CELSIUS

 * =Non NWS site. Station does not report precipitation (e.g. rain,
    snow, etc.), thunder, or fog.

DCZ001-MDZ009-015-VAZ040>042-051-053>054-032100-
WASHINGTON METRO

CITY           SKY/WX    TMP DP  RH WIND       PRES   REMARKS
WASHINGTON NAT PTSUNNY   92  63  38 S12       29.83F HX  93
DULLES         PTSUNNY   88  62  41 S13       29.83F
ANDREWS AFB    MOSUNNY   89  62  40 S15       29.83S HX  90
FT BELVOIR     PTSUNNY   90  65  43 SE8       29.82F HX  91
QUANTICO       PTSUNNY   94  62  34 S8        29.80F HX  95
COLLEGE PARK*  PTSUNNY   90  54  29 S5        29.82S
LEESBURG*      MOSUNNY   91  64  40 SW15      29.84F HX  93
MANASSAS*      SUNNY     90  63  40 S9        29.84S HX  90
GAITHERSBURG*  MOSUNNY   90  61  37 SW10G17   29.87S

$$

MDZ006>007-011-014-032100-
BALTIMORE METRO

CITY           SKY/WX    TMP DP  RH WIND       PRES   REMARKS
BWI AIRPORT    PTSUNNY   91  58  32 SW8       29.81S HX  90
MD SCIENCE CTR   N/A     91  55  29 MISG      29.81S
MARTIN STATE   MOSUNNY   88  70  55 SE15      29.83S HX  92
ANNAPOLIS      MOSUNNY   87  62  43 S15       29.82S
FORT MEADE*    PTSUNNY   88  61  40 SW8       29.84S

$$

MDZ012-015-019>023-032100-
MARYLAND EASTERN SHORE

CITY           SKY/WX    TMP DP  RH WIND       PRES   REMARKS
OCEAN CITY     SUNNY     87  73  62 SW14G24   29.86S HX  94
SALISBURY      SUNNY     89  64  43 SW12      29.86S HX  90
BAY BRIDGE AP*   N/A     88  61  40 S12       29.82F
CAMBRIDGE*     SUNNY     88  64  45 S12       29.84F
EASTON*        MOSUNNY   91  64  40 SW14G22   29.87F HX  93

$$

MDZ017>025-032100-
SOUTHERN MARYLAND

CITY           SKY/WX    TMP DP  RH WIND       PRES   REMARKS
PATUXENT RIVER MOSUNNY   89  68  49 S10       29.84F HX  93
ST INIGOES     SUNNY     88  69  53 S9        29.84F HX  92
LEONARDTOWN*   SUNNY     90  64  43 S7        29.86F HX  91

$$

MDZ003>005-032100-
NORTH CENTRAL MARYLAND

CITY           SKY/WX    TMP DP  RH WIND       PRES   REMARKS
FREDERICK*     SUNNY     91  64  40 SW12G17   29.84F HX  93
HAGERSTOWN APT PTSUNNY   92  50  23 W10G18    29.81F
WESTMINSTER*   MOSUNNY   88  57  35 SW10      29.84S

$$

MDZ501>502-032100-
WESTERN MARYLAND

CITY           SKY/WX    TMP DP  RH WIND       PRES   REMARKS
OAKLAND*       CLOUDY    68  68 100 W5        29.96S
CUMBERLAND*    PTSUNNY   90  54  29 W9        29.87S

$$

VAZ025>031-032100-
SHENANDOAH VALLEY

CITY           SKY/WX    TMP DP  RH WIND       PRES   REMARKS
WINCHESTER*    MOSUNNY   91  59  33 SW10G16   29.83S HX  90
FRONT ROYAL*   FAIR      88  63  42 SW5       29.83F
LURAY*         FAIR      91  61  35 SW12      29.85F HX  91
NEW MARKET*    FAIR      87  64  45 S10       29.83F
STAUNTON*      MOSUNNY   91  57  32 S13G22    29.91S
WAYNESBORO*    FAIR      85  59  41 W7        29.91F

$$

WVZ021-048>050-054>055-032100-
EASTERN WEST VIRGINIA PANHANDLE

CITY           SKY/WX    TMP DP  RH WIND       PRES   REMARKS
MARTINSBURG    PTSUNNY   87  58  37 SW9       29.82F
PETERSBURG*      N/A    N/A N/A N/A MISG        N/A

$$

VAZ036>039-050-032100-
CENTRAL FOOTHILLS

CITY           SKY/WX    TMP DP  RH WIND       PRES   REMARKS
CHARLOTTESVILL SUNNY     90  60  36 S7        29.86S
CULPEPER*      MOSUNNY   88  64  45 SW6       29.85F
ORANGE*        MOSUNNY   90  63  40 SW12      29.87S HX  90
GORDONSVILLE*  FAIR      90  63  40 SW7       29.85S HX  90
WARRENTON*     FAIR      91  67  45 SW8       29.84S HX  93

$$

VAZ055>057-032100-
NORTH AND CENTRAL PIEDMONT

CITY           SKY/WX    TMP DP  RH WIND       PRES   REMARKS
FREDERICKSBRG* MOSUNNY   93  63  36 SW13      29.83S HX  94
STAFFORD*      MOSUNNY   91  60  35 S10       29.88S HX  90

$$

NCZ024-NYZ072-PAZ021-071-VAZ022-071-032100-
OTHER REGIONAL OBSERVATIONS

CITY           SKY/WX    TMP DP  RH WIND       PRES   REMARKS
NEW YORK CITY  MOSUNNY   87  61  41 S8        29.81S
PHILADELPHIA   MOSUNNY   92  58  31 SW17G28   29.80F HX  91
PITTSBURGH     TSTM      80  61  52 W8        29.83F
ROANOKE        MOSUNNY   90  55  30 VRB7G16   29.93F
RICHMOND       PTSUNNY   92  69  47 S14       29.86S HX  97
RALEIGH        PTSUNNY   94  64  37 SW9       29.90F HX  95

$$

ANZ530>537-032100-
MARINE OBSERVATIONS

STATION/POSITION TIME  TEMP    WIND        PRES
                       AIR SEA DIR/SP/G
                 (UTC) (F)     (DEG/KT/KT) (MB)
THOMAS PT LIGHT  NOT AVBL
BALT KEY BRIDGE  1900   87     170/  8/ 10 1009.3F
COVE POINT       1900   85     230/ 12/ 15 1011.6F
LEWISETTA        1900   86 85  220/  9/ 11 1010.7F
SOLOMONS ISLAND  1900      83                N/A
PINEY POINT      1900          230/  7/  8   N/A

$$




USA.gov is the U.S. government's official web portal to all federal, state and local government web resources and services.